ZIYUAN 3-2

Last updated on Thu Jun 22 2017 00:17:34 GMT+0000 (Coordinated Universal Time)

1 41556U 16033A 17172.52129697 .00000960 00000-0 46055-4 0 9992 2 41556 97.4622 249.2662 0001929 104.7387 350.9960 15.21279256 58909
UTC large
Height (km)
Speed (km/s)
/
Latitude / Longitude
Inclination (degrees)
Orbital Period (minutes)
Azimuth
Elevation
Range (km)
Doppler Factor

Next 0 passes for location: London (51.5072 / 0.1276)

Sorry there are no passes over London.